H1 CPF 2 NER 2024 7 11 9 193 01 glonass141 H2 1908801 9141 44850 2024 7 11 0 0 0 2024 7 14 23 45 0 900 1 1 0 0 0 1 H9 10 0 60502 0.00000 0 22641731.307 -8601390.449 8011052.458 10 0 60502 900.00000 0 23371326.587 -8960249.908 4911409.431 10 0 60502 1800.00000 0 23703965.965 -9253159.554 1716346.971 10 0 60502 2700.00000 0 23646773.896 -9423892.594 -1512073.246 10 0 60502 3600.00000 0 23219944.204 -9419870.315 -4711087.726 10 0 60502 4500.00000 0 22455805.369 -9194621.144 -7818456.356 10 0 60502 5400.00000 0 21397392.020 -8709992.460 -10773681.108 10 0 60502 6300.00000 0 20096582.253 -7938019.757 -13519193.528 10 0 60502 7200.00000 0 18611879.151 -6862372.006 -16001486.731 10 0 60502 8100.00000 0 17005930.428 -5479310.053 -18172168.839 10 0 60502 9000.00000 0 15342891.036 -3798115.414 -19988916.260 10 0 60502 9900.00000 0 13685740.610 -1840969.502 -21416307.352 10 0 60502 10800.00000 0 12093669.366 357713.274 -22426519.621 10 0 60502 11700.00000 0 10619642.992 2752471.939 -22999876.390 10 0 60502 12600.00000 0 9308249.418 5288456.071 -23125232.106 10 0 60502 13500.00000 0 8193918.077 7903484.840 -22800188.773 10 0 60502 14400.00000 0 7299586.302 10530422.161 -22031139.449 10 0 60502 15300.00000 0 6635868.313 13099768.760 -20833138.251 10 0 60502 16200.00000 0 6200760.742 15542362.806 -19229599.775 10 0 60502 17100.00000 0 5979895.798 17792076.289 -17251834.225 10 0 60502 18000.00000 0 5947329.868 19788394.461 -14938427.872 10 0 60502 18900.00000 0 6066832.604 21478770.763 -12334481.471 10 0 60502 19800.00000 0 6293620.392 22820659.208 -9490722.158 10 0 60502 20700.00000 0 6576459.328 23783139.902 -6462506.825 10 0 60502 21600.00000 0 6860047.328 24348070.703 -3308737.154 10 0 60502 22500.00000 0 7087573.388 24510718.115 -90708.124 10 0 60502 23400.00000 0 7203344.837 24279842.517 3129086.918 10 0 60502 24300.00000 0 7155370.828 23677235.869 6288170.880 10 0 60502 25200.00000 0 6897792.605 22736732.948 9325293.367 10 0 60502 26100.00000 0 6393057.863 21502739.126 12181613.398 10 0 60502 27000.00000 0 5613747.665 20028337.668 14801831.761 10 0 60502 27900.00000 0 4543979.219 18373056.657 17135251.716 10 0 60502 28800.00000 0 3180325.744 16600389.425 19136748.401 10 0 60502 29700.00000 0 1532214.876 14775172.027 20767629.368 10 0 60502 30600.00000 0 -378211.335 12960926.662 21996370.913 10 0 60502 31500.00000 0 -2516769.563 11217280.923 22799217.273 10 0 60502 32400.00000 0 -4838414.428 9597569.147 23160632.298 10 0 60502 33300.00000 0 -7288876.101 8146714.352 23073595.804 10 0 60502 34200.00000 0 -9806689.878 6899477.592 22539739.454 10 0 60502 35100.00000 0 -12325535.342 5879146.386 21569319.626 10 0 60502 36000.00000 0 -14776789.992 5096715.893 20181027.477 10 0 60502 36900.00000 0 -17092193.142 4550596.416 18401639.049 10 0 60502 37800.00000 0 -19206511.095 4226859.195 16265511.042 10 0 60502 38700.00000 0 -21060094.024 4100010.336 13813930.569 10 0 60502 39600.00000 0 -22601218.858 4134260.846 11094329.988 10 0 60502 40500.00000 0 -23788120.759 4285239.964 8159380.547 10 0 60502 41400.00000 0 -24590628.102 4502080.231 5065981.133 10 0 60502 42300.00000 0 -24991331.869 4729786.803 1874160.845 10 0 60502 43200.00000 0 -24986239.454 4911791.027 -1354083.888 10 0 60502 44100.00000 0 -24584884.322 4992580.059 -4555995.108 10 0 60502 45000.00000 0 -23809885.721 4920290.455 -7669278.295 10 0 60502 45900.00000 0 -22695976.029 4649154.794 -10633321.988 10 0 60502 46800.00000 0 -21288535.822 4141696.113 -13390387.379 10 0 60502 47700.00000 0 -19641697.979 3370575.473 -15886743.612 10 0 60502 48600.00000 0 -17816100.438 2320012.400 -18073725.544 10 0 60502 49500.00000 0 -15876382.372 986716.133 -19908692.335 10 0 60502 50400.00000 0 -13888529.703 -619713.562 -21355867.348 10 0 60502 51300.00000 0 -11917181.930 -2476934.708 -22387042.305 10 0 60502 52200.00000 0 -10023013.979 -4550555.806 -22982131.566 10 0 60502 53100.00000 0 -8260303.445 -6795344.891 -23129565.512 10 0 60502 54000.00000 0 -6674785.387 -9156905.106 -22826515.342 10 0 60502 54900.00000 0 -5301884.551 -11573747.012 -22078945.083 10 0 60502 55800.00000 0 -4165398.616 -13979671.060 -20901490.054 10 0 60502 56700.00000 0 -3276686.780 -16306360.516 -19317164.526 10 0 60502 57600.00000 0 -2634396.388 -18486076.285 -17356904.728 10 0 60502 58500.00000 0 -2224737.476 -20454340.722 -15058956.632 10 0 60502 59400.00000 0 -2022291.768 -22152498.133 -12468121.026 10 0 60502 60300.00000 0 -1991320.062 -23530044.894 -9634871.228 10 0 60502 61200.00000 0 -2087510.876 -24546631.994 -6614361.382 10 0 60502 62100.00000 0 -2260094.670 -25173656.737 -3465345.337 10 0 60502 63000.00000 0 -2454232.671 -25395377.822 -249027.918 10 0 60502 63900.00000 0 -2613578.015 -25209508.239 2972128.402 10 0 60502 64800.00000 0 -2682899.930 -24627262.495 6135617.699 10 0 60502 65700.00000 0 -2610659.486 -23672857.611 9180101.793 10 0 60502 66600.00000 0 -2351427.818 -22382490.231 12046594.832 10 0 60502 67500.00000 0 -1868044.852 -20802833.873 14679598.625 10 0 60502 68400.00000 0 -1133427.738 -18989120.118 17028167.308 10 0 60502 69300.00000 0 -131953.183 -17002884.426 19046881.654 10 0 60502 70200.00000 0 1139644.181 -14909470.748 20696715.328 10 0 60502 71100.00000 0 2671895.111 -12775398.467 21945777.663 10 0 60502 72000.00000 0 4442756.820 -10665700.541 22769919.881 10 0 60502 72900.00000 0 6418305.841 -8641342.315 23153194.258 10 0 60502 73800.00000 0 8553934.922 -6756826.884 23088158.314 10 0 60502 74700.00000 0 10796005.629 -5058085.053 22576018.693 10 0 60502 75600.00000 0 13083889.662 -3580736.126 21626612.114 10 0 60502 76500.00000 0 15352315.973 -2348790.600 20258223.403 10 0 60502 77400.00000 0 17533927.961 -1373847.880 18497243.352 10 0 60502 78300.00000 0 19561946.110 -654821.820 16377671.866 10 0 60502 79200.00000 0 21372826.633 -178205.349 13940474.599 10 0 60502 80100.00000 0 22908806.230 81136.802 11232804.030 10 0 60502 81000.00000 0 24120227.155 158680.224 8307098.606 10 0 60502 81900.00000 0 24967545.308 98511.551 5220076.123 10 0 60502 82800.00000 0 25422936.592 -48769.760 2031639.953 10 0 60502 83700.00000 0 25471433.221 -228430.181 -1196281.195 10 0 60502 84600.00000 0 25111540.875 -384160.759 -4400937.583 10 0 60502 85500.00000 0 24355309.498 -460706.845 -7519983.062 10 0 60503 0.00000 0 23227853.456 -406456.654 -10492695.281 10 0 60503 900.00000 0 21766339.451 -175877.670 -13261168.378 10 0 60503 1800.00000 0 20018485.493 268303.802 -15771449.868 10 0 60503 2700.00000 0 18040631.483 953274.146 -17974603.776 10 0 60503 3600.00000 0 15895463.875 1894734.233 -19827674.283 10 0 60503 4500.00000 0 13649489.586 3095992.474 -21294531.823 10 0 60503 5400.00000 0 11370365.654 4547589.153 -22346584.207 10 0 60503 6300.00000 0 9124197.071 6227469.378 -22963338.500 10 0 60503 7200.00000 0 6972916.403 8101698.587 -23132802.417 10 0 60503 8100.00000 0 4971855.200 10125691.432 -22851717.462 10 0 60503 9000.00000 0 3167608.811 12245903.016 -22125619.387 10 0 60503 9900.00000 0 1596283.618 14401911.769 -20968725.063 10 0 60503 10800.00000 0 282199.236 16528806.687 -19403648.365 10 0 60503 11700.00000 0 -762901.180 18559778.732 -17460951.022 10 0 60503 12600.00000 0 -1540101.000 20428807.557 -15178537.723 10 0 60503 13500.00000 0 -2063012.001 22073330.750 -12600907.846 10 0 60503 14400.00000 0 -2356942.734 23436783.593 -9778279.029 10 0 60503 15300.00000 0 -2457570.578 24470902.874 -6765600.384 10 0 60503 16200.00000 0 -2409175.635 25137698.422 -3621475.301 10 0 60503 17100.00000 0 -2262512.963 25411010.209 -407015.523 10 0 60503 18000.00000 0 -2072414.689 25277586.483 2815350.498 10 0 60503 18900.00000 0 -1895224.653 24737638.724 5983091.295 10 0 60503 19800.00000 0 -1786174.856 23804851.299 9034784.235 10 0 60503 20700.00000 0 -1796815.072 22505846.597 11911301.912 10 0 60503 21600.00000 0 -1972604.174 20879129.080 14556950.366 10 0 60503 22500.00000 0 -2350764.638 18973553.287 16920537.672 10 0 60503 23400.00000 0 -2958490.202 16846380.282 18956353.098 10 0 60503 24300.00000 0 -3811581.679 14561003.694 20625039.035 10 0 60503 25200.00000 0 -4913567.985 12184439.719 21894340.170 10 0 60503 26100.00000 0 -6255349.208 9784684.719 22739716.679 10 0 60503 27000.00000 0 -7815377.047 7428049.023 23144810.834 10 0 60503 27900.00000 0 -9560365.892 5176576.198 23101758.952 10 0 60503 28800.00000 0 -11446506.071 3085653.324 22611343.230 10 0 60503 29700.00000 0 -13421130.246 1201909.837 21682980.716 10 0 60503 30600.00000 0 -15424765.346 -438509.239 20334549.283 10 0 60503 31500.00000 0 -17393486.419 -1811225.126 18592053.226 10 0 60503 32400.00000 0 -19261476.095 -2904409.676 16489133.820 10 0 60503 33300.00000 0 -20963684.486 -3719040.159 14066432.878 10 0 60503 34200.00000 0 -22438479.604 -4268613.945 11370820.163 10 0 60503 35100.00000 0 -23630178.134 -4578334.941 8454498.130 10 0 60503 36000.00000 0 -24491350.708 -4683805.682 5374000.045 10 0 60503 36900.00000 0 -24984804.565 -4629279.769 2189099.991 10 0 60503 37800.00000 0 -25085159.348 -4465548.123 -1038344.644 10 0 60503 38700.00000 0 -24779948.549 -4247548.333 -4245595.897 10 0 60503 39600.00000 0 -24070198.693 -4031798.537 -7370259.466 10 0 60503 40500.00000 0 -22970460.212 -3873765.078 -10351505.937 10 0 60503 41400.00000 0 -21508287.337 -3825276.535 -13131264.442 10 0 60503 42300.00000 0 -19723187.445 -3932094.940 -15655364.269 10 0 60503 43200.00000 0 -17665083.166 -4231748.664 -17874601.125 10 0 60503 44100.00000 0 -15392351.328 -4751720.428 -19745706.298 10 0 60503 45000.00000 0 -12969520.850 -5508068.753 -21232198.869 10 0 60503 45900.00000 0 -10464726.219 -6504542.723 -22305103.749 10 0 60503 46800.00000 0 -7947023.456 -7732228.844 -22943521.084 10 0 60503 47700.00000 0 -5483681.225 -9169746.059 -23135035.704 10 0 60503 48600.00000 0 -3137560.663 -10783981.577 -22875958.626 10 0 60503 49500.00000 0 -964693.457 -12531337.140 -22171396.018 10 0 60503 50400.00000 0 987840.784 -14359433.613 -21035144.582 10 0 60503 51300.00000 0 2683649.808 -16209202.281 -19489415.728 10 0 60503 52200.00000 0 4098305.076 -18017274.879 -17564394.349 10 0 60503 53100.00000 0 5220107.220 -19718571.642 -15297641.322 10 0 60503 54000.00000 0 6050310.345 -21248978.389 -12733351.971 10 0 60503 54900.00000 0 6602797.873 -22547999.876 -9921485.537 10 0 60503 55800.00000 0 6903225.810 -23561277.784 -6916783.381 10 0 60503 56700.00000 0 6987671.839 -24242867.556 -3777695.742 10 0 60503 57600.00000 0 6900849.367 -24557178.642 -565238.674 10 0 60503 58500.00000 0 6693963.849 -24480497.114 2658195.890 10 0 60503 59400.00000 0 6422303.535 -24002027.379 5830053.309 10 0 60503 60300.00000 0 6142667.576 -23124410.122 8888828.709 10 0 60503 61200.00000 0 5910740.868 -21863695.653 11775255.174 10 0 60503 62100.00000 0 5778526.733 -20248774.678 14433444.825 10 0 60503 63000.00000 0 5791945.658 -18320290.983 16811961.309 10 0 60503 63900.00000 0 5988700.869 -16129081.928 18864803.775 10 0 60503 64800.00000 0 6396500.062 -13734211.867 20552284.458 10 0 60503 65700.00000 0 7031707.499 -11200680.018 21841784.216 10 0 60503 66600.00000 0 7898482.684 -8596897.357 22708372.691 10 0 60503 67500.00000 0 8988441.674 -5992036.152 23135282.352 10 0 60503 68400.00000 0 10280855.543 -3453360.612 23114228.215 10 0 60503 69300.00000 0 11743378.508 -1043647.742 22645567.668 10 0 60503 70200.00000 0 13333276.501 1181196.413 21738297.477 10 0 60503 71100.00000 0 14999106.445 3174227.851 20409887.748 10 0 60503 72000.00000 0 16682777.858 4899177.614 18685955.282 10 0 60503 72900.00000 0 18321912.464 6331716.592 16599781.554 10 0 60503 73800.00000 0 19852404.866 7460220.208 14191683.210 10 0 60503 74700.00000 0 21211078.454 8286001.423 11508245.803 10 0 60503 75600.00000 0 22338326.200 8823002.407 8601434.117 10 0 60503 76500.00000 0 23180625.944 9096957.607 5527595.030 10 0 60503 77400.00000 0 23692824.290 9144063.106 2346371.308 10 0 60503 78300.00000 0 23840092.297 9009208.058 -880453.186 10 0 60503 79200.00000 0 23599469.426 8743842.681 -4090154.588 10 0 60503 80100.00000 0 22960929.052 8403573.008 -7220292.772 10 0 60503 81000.00000 0 21927919.031 8045584.674 -10209933.348 10 0 60503 81900.00000 0 20517352.664 7726005.485 -13000843.219 10 0 60503 82800.00000 0 18759048.734 7497319.540 -15538635.268 10 0 60503 83700.00000 0 16694642.952 7405943.791 -17773838.867 10 0 60503 84600.00000 0 14376015.351 7490071.029 -19662874.229 10 0 60503 85500.00000 0 11863299.119 7777872.126 -21168910.760 10 0 60504 0.00000 0 9222554.370 8286134.897 -22262591.939 10 0 60504 900.00000 0 6523202.659 9019398.622 -22922612.619 10 0 60504 1800.00000 0 3835333.351 9969621.088 -23136135.888 10 0 60504 2700.00000 0 1226989.847 11116393.845 -22899043.311 10 0 60504 3600.00000 0 -1238447.361 12427696.451 -22216012.249 10 0 60504 4500.00000 0 -3504673.054 13861158.353 -21100419.651 10 0 60504 5400.00000 0 -5524564.524 15365775.189 -19574074.482 10 0 60504 6300.00000 0 -7261896.489 16884007.047 -17666784.397 10 0 60504 7200.00000 0 -8692593.146 18354169.924 -15415765.642 10 0 60504 8100.00000 0 -9805466.608 19713019.343 -12864908.245 10 0 60504 9000.00000 0 -10602412.704 20898416.899 -10063911.439 10 0 60504 9900.00000 0 -11098058.110 21851967.111 -7067306.879 10 0 60504 10800.00000 0 -11318875.985 22521513.386 -3933389.416 10 0 60504 11700.00000 0 -11301809.657 22863387.952 -723076.926 10 0 60504 12600.00000 0 -11092464.485 22844321.307 2501277.879 10 0 60504 13500.00000 0 -10742946.085 22442931.205 5677100.026 10 0 60504 14400.00000 0 -10309437.594 21650729.224 8742805.375 10 0 60504 15300.00000 0 -9849619.254 20472603.265 11638990.526 10 0 60504 16200.00000 0 -9420039.726 18926756.450 14309576.727 10 0 60504 17100.00000 0 -9073550.035 17044105.525 16702886.203 10 0 60504 18000.00000 0 -8856907.949 14867164.275 18772630.893 10 0 60504 18900.00000 0 -8808652.998 12448458.553 20478795.628 10 0 60504 19800.00000 0 -8957340.742 9848538.576 21788399.972 10 0 60504 20700.00000 0 -9320209.741 7133670.397 22676125.280 10 0 60504 21600.00000 0 -9902336.644 4373301.256 23124796.107 10 0 60504 22500.00000 0 -10696314.660 1637402.436 23125707.627 10 0 60504 23400.00000 0 -11682469.109 -1006201.908 22678793.375 10 0 60504 24300.00000 0 -12829601.805 -3494411.058 21792630.240 10 0 60504 25200.00000 0 -14096234.230 -5771224.142 20484280.362 10 0 60504 26100.00000 0 -15432298.996 -7789819.627 18778972.235 10 0 60504 27000.00000 0 -16781210.403 -9514252.780 16709626.118 10 0 60504 27900.00000 0 -18082229.048 -10920701.443 14316231.503 10 0 60504 28800.00000 0 -19273022.785 -11998208.669 11645087.242 10 0 60504 29700.00000 0 -20292317.651 -12748891.404 8747917.546 10 0 60504 30600.00000 0 -21082528.012 -13187606.375 5680879.682 10 0 60504 31500.00000 0 -21592255.277 -13341086.888 2503481.637 10 0 60504 32400.00000 0 -21778549.450 -13246586.528 -722569.829 10 0 60504 33300.00000 0 -21608837.095 -12950086.678 -3934568.583 10 0 60504 34200.00000 0 -21062432.885 -12504143.403 -7070032.332 10 0 60504 35100.00000 0 -20131569.196 -11965465.003 -10067925.281 10 0 60504 36000.00000 0 -18821898.362 -11392323.140 -12869855.530 10 0 60504 36900.00000 0 -17152444.524 -10841907.981 -15421222.813 10 0 60504 37800.00000 0 -15155005.320 -10367740.287 -17672293.086 10 0 60504 38700.00000 0 -12873027.115 -10017251.242 -19579178.009 10 0 60504 39600.00000 0 -10360000.063 -9829633.716 -21104699.350 10 0 60504 40500.00000 0 -7677439.512 -9834056.971 -22219120.743 10 0 60504 41400.00000 0 -4892537.954 -10048321.365 -22900732.137 10 0 60504 42300.00000 0 -2075585.675 -10478010.667 -23136275.239 10 0 60504 43200.00000 0 702732.186 -11116178.352 -22921201.667 10 0 60504 44100.00000 0 3374049.209 -11943581.402 -22259758.897 10 0 60504 45000.00000 0 5874928.672 -12929451.783 -21164902.571 10 0 60504 45900.00000 0 8149263.258 -14032772.821 -19658037.247 10 0 60504 46800.00000 0 10150363.862 -15204006.293 -17768591.047 10 0 60504 47700.00000 0 11842651.144 -16387196.808 -15533433.004 10 0 60504 48600.00000 0 13202880.415 -17522364.163 -12996145.046 10 0 60504 49500.00000 0 14220850.254 -18548082.132 -10206163.404 10 0 60504 50400.00000 0 14899567.120 -19404134.372 -7217806.903 10 0 60504 51300.00000 0 15254861.251 -20034134.966 -4089211.787 10 0 60504 52200.00000 0 15314472.307 -20388002.861 -881194.530 10 0 60504 53100.00000 0 15116645.443 -20424185.808 2343934.524 10 0 60504 54000.00000 0 14708299.033 -20111540.242 5523583.092 10 0 60504 54900.00000 0 14142842.960 -19430788.312 8596090.542 10 0 60504 55800.00000 0 13477740.762 -18375491.233 11501919.482 10 0 60504 56700.00000 0 12771919.162 -16952498.578 14184802.434 10 0 60504 57600.00000 0 12083134.433 -15181855.098 16592821.966 10 0 60504 58500.00000 0 11465406.269 -13096169.215 18679404.178 10 0 60504 59400.00000 0 10966626.542 -10739469.530 20404207.463 10 0 60504 60300.00000 0 10626442.561 -8165596.617 21733890.648 10 0 60504 61200.00000 0 10474502.794 -5436196.262 22642746.967 10 0 60504 62100.00000 0 10529137.718 -2618396.353 23113192.845 10 0 60504 63000.00000 0 10796530.465 217737.733 23136103.056 10 0 60504 63900.00000 0 11270411.712 3001865.442 22710986.407 10 0 60504 64800.00000 0 11932291.732 5666042.663 21845998.762 10 0 60504 65700.00000 0 12752220.542 8147293.769 20557792.913 10 0 60504 66600.00000 0 13690045.280 10389979.128 18871207.485 10 0 60504 67500.00000 0 14697113.477 12347861.217 16818799.792 10 0 60504 68400.00000 0 15718352.212 13985784.528 14440230.323 10 0 60504 69300.00000 0 16694637.293 15280899.936 11781509.262 10 0 60504 70200.00000 0 17565354.062 16223382.666 8894118.180 10 0 60504 71100.00000 0 18271042.861 16816613.787 5834022.568 10 0 60504 72000.00000 0 18756018.003 17076817.277 2660593.412 10 0 60504 72900.00000 0 18970849.522 17032167.490 -564541.907 10 0 60504 73800.00000 0 18874602.103 16721404.159 -3778697.238 10 0 60504 74700.00000 0 18436735.326 16192013.105 -6919350.302 10 0 60504 75600.00000 0 17638583.242 15498049.430 -9925365.966 10 0 60504 76500.00000 0 16474348.798 14697695.402 -12738195.444 10 0 60504 77400.00000 0 14951569.133 13850656.849 -15303027.030 10 0 60504 78300.00000 0 13091030.036 13015508.945 -17569864.777 10 0 60504 79200.00000 0 10926131.448 12247104.629 -19494513.143 10 0 60504 80100.00000 0 8501729.211 11594156.330 -21039447.433 10 0 60504 81000.00000 0 5872500.592 11097094.182 -22174552.432 10 0 60504 81900.00000 0 3100901.350 10786292.119 -22877714.337 10 0 60504 82800.00000 0 254799.391 10680737.344 -23135254.178 10 0 60504 83700.00000 0 -2595116.221 10787199.764 -22942194.263 10 0 60504 84600.00000 0 -5378042.764 11099936.520 -22302352.576 10 0 60504 85500.00000 0 -8025774.871 11600943.856 -21228263.531 10 0 60505 0.00000 0 -10475305.850 12260745.213 -19740927.157 10 0 60505 900.00000 0 -12671212.395 13039681.990 -17869391.121 10 0 60505 1800.00000 0 -14567720.482 13889650.795 -15650176.351 10 0 60505 2700.00000 0 -16130371.462 14756214.152 -13126555.341 10 0 60505 3600.00000 0 -17337216.681 15580993.819 -10347699.722 10 0 60505 4500.00000 0 -18179493.588 16304245.131 -7367713.672 10 0 60505 5400.00000 0 -18661756.684 16867502.915 -4244572.850 10 0 60505 6300.00000 0 -18801459.960 17216186.689 -1038990.206 10 0 60505 7200.00000 0 -18628010.532 17302054.863 2186768.545 10 0 60505 8100.00000 0 -18181335.381 17085404.271 5370096.168 10 0 60505 9000.00000 0 -17510023.370 16536922.431 8449258.039 10 0 60505 9900.00000 0 -16669122.310 15639114.784 11364585.363 10 0 60505 10800.00000 0 -15717684.809 14387247.228 14059624.605 10 0 60505 11700.00000 0 -14716166.752 12789764.724 16482221.378 10 0 60505 12600.00000 0 -13723787.803 10868168.576 18585518.609 10 0 60505 13500.00000 0 -12795964.385 8656357.514 20328850.819 10 0 60505 14400.00000 0 -11981922.057 6199459.633 21678518.491 10 0 60505 15300.00000 0 -11322586.358 3552203.143 22608428.879 10 0 60505 16200.00000 0 -10848839.358 776892.477 23100592.102 10 0 60505 17100.00000 0 -10580213.888 -2058927.689 23145463.975 10 0 60505 18000.00000 0 -10524079.325 -4885025.388 22742129.575 10 0 60505 18900.00000 0 -10675352.609 -7631147.387 21898324.259 10 0 60505 19800.00000 0 -11016746.606 -10229689.731 20630291.478 10 0 60505 20700.00000 0 -11519545.898 -12618263.868 18962479.453 10 0 60505 21600.00000 0 -12144878.341 -14742053.396 16927081.500 10 0 60505 22500.00000 0 -12845430.141 -16555864.702 14563427.544 10 0 60505 23400.00000 0 -13567533.617 -18025786.859 11917237.088 10 0 60505 24300.00000 0 -14253540.979 -19130391.874 9039746.655 10 0 60505 25200.00000 0 -14844385.005 -19861425.078 5986727.235 10 0 60505 26100.00000 0 -15282219.116 -20223956.346 2817409.831 10 0 60505 27000.00000 0 -15513025.341 -20235985.242 -406660.708 10 0 60505 27900.00000 0 -15489079.410 -19927516.117 -3622821.517 10 0 60505 28800.00000 0 -15171167.643 -19339141.631 -6768513.739 10 0 60505 29700.00000 0 -14530460.312 -18520194.044 -9782506.321 10 0 60505 30600.00000 0 -13549960.430 -17526542.449 -12606097.011 10 0 60505 31500.00000 0 -12225464.626 -16418129.078 -15184265.981 10 0 60505 32400.00000 0 -10565993.390 -15256349.312 -17466758.516 10 0 60505 33300.00000 0 -8593670.590 -14101386.923 -19409074.690 10 0 60505 34200.00000 0 -6343055.568 -13009617.890 -20973345.776 10 0 60505 35100.00000 0 -3859954.440 -12031193.288 -22129079.617 10 0 60505 36000.00000 0 -1199759.378 -11207903.967 -22853759.988 10 0 60505 36900.00000 0 1574615.285 -10571417.613 -23133287.955 10 0 60505 37800.00000 0 4395114.220 -10141962.798 -22962256.624 10 0 60505 38700.00000 0 7191140.241 -9927515.405 -22344054.033 10 0 60505 39600.00000 0 9892262.952 -9923521.376 -21290792.401 10 0 60505 40500.00000 0 12430923.880 -10113166.753 -19823065.500 10 0 60505 41400.00000 0 14745025.394 -10468182.738 -17969539.242 10 0 60505 42300.00000 0 16780295.589 -10950150.678 -15766383.996 10 0 60505 43200.00000 0 18492330.996 -11512250.711 -13256560.233 10 0 60505 44100.00000 0 19848232.655 -12101378.997 -10488972.041 10 0 60505 45000.00000 0 20827768.304 -12660542.948 -7517505.704 10 0 60505 45900.00000 0 21424013.618 -13131432.184 -4399972.801 10 0 60505 46800.00000 0 21643447.429 -13457055.738 -1196979.106 10 0 60505 47700.00000 0 21505498.899 -13584333.470 2029257.971 10 0 60505 48600.00000 0 21041567.708 -13466531.856 5216119.850 10 0 60505 49500.00000 0 20293560.308 -13065441.251 8301801.282 10 0 60505 50400.00000 0 19312005.418 -12353202.900 11226505.122 10 0 60505 51300.00000 0 18153829.216 -11313708.977 13933594.420 10 0 60505 52200.00000 0 16879884.457 -9943517.051 16370680.006 10 0 60505 53100.00000 0 15552337.553 -8252240.744 18490623.333 10 0 60505 54000.00000 0 14232022.910 -6262400.210 20252436.250 10 0 60505 54900.00000 0 12975874.730 -4008738.323 21622061.631 10 0 60505 55800.00000 0 11834542.742 -1537030.420 22573021.020 10 0 60505 56700.00000 0 10850290.348 1097563.934 23086918.073 10 0 60505 57600.00000 0 10055261.795 3832540.123 23153789.065 10 0 60505 58500.00000 0 9470189.607 6600395.660 22772294.385 10 0 60505 59400.00000 0 9103595.461 9331189.957 21949747.560 10 0 60505 60300.00000 0 8951517.358 11955212.548 20701981.064 10 0 60505 61200.00000 0 8997774.473 14405650.941 19053050.802 10 0 60505 62100.00000 0 9214758.873 16621149.045 17034783.956 10 0 60505 63000.00000 0 9564721.620 18548151.151 14686177.565 10 0 60505 63900.00000 0 10001500.113 20142934.749 12052657.989 10 0 60505 64800.00000 0 10472614.971 21373247.814 9185214.129 10 0 60505 65700.00000 0 10921648.966 22219482.140 6139419.833 10 0 60505 66600.00000 0 11290808.194 22675333.130 2974363.445 10 0 60505 67500.00000 0 11523557.447 22747917.744 -248495.377 10 0 60505 68400.00000 0 11567218.021 22457344.835 -3466519.640 10 0 60505 69300.00000 0 11375417.170 21835755.184 -6617116.305 10 0 60505 70200.00000 0 10910284.222 20925871.137 -9638960.623 10 0 60505 71100.00000 0 10144298.689 19779116.624 -12473198.811 10 0 60505 72000.00000 0 9061710.179 18453386.760 -15064604.553 10 0 60505 72900.00000 0 7659468.013 17010561.502 -17362665.755 10 0 60505 73800.00000 0 5947619.124 15513868.574 -19322579.242 10 0 60505 74700.00000 0 3949155.519 14025207.674 -20906133.145 10 0 60505 75600.00000 0 1699316.147 12602549.583 -22082459.076 10 0 60505 76500.00000 0 -755628.993 11297520.245 -22828638.916 10 0 60505 77400.00000 0 -3360062.439 10153272.117 -23130154.116 10 0 60505 78300.00000 0 -6051100.726 9202732.583 -22981168.705 10 0 60505 79200.00000 0 -8760987.025 8467303.024 -22384640.622 10 0 60505 80100.00000 0 -11419695.086 7956062.841 -21352259.430 10 0 60505 81000.00000 0 -13957635.787 7665511.076 -19904211.976 10 0 60505 81900.00000 0 -16308353.270 7579855.415 -18068780.989 10 0 60505 82800.00000 0 -18411098.167 7671835.014 -15881784.919 10 0 60505 83700.00000 0 -20213170.708 7904040.965 -13385870.490 10 0 60505 84600.00000 0 -21671936.292 8230677.095 -10629672.350 10 0 60505 85500.00000 0 -22756430.030 8599685.240 -7666856.875 99